Find Starlink 34870

NORAD ID: 65370 Int'l Des: 2025-190 Owner: SPXS Country: US Constellation: starlink operational
LEOCIRCULAR

現在のビュー

3D地球を読み込み中...

About Starlink 34870

Starlink 34870 (NORAD 65370) is a starlink constellation satellite (v2 mini) launched Aug 28, 2025 by SPXS of US. It operates in LEO, CIRCULAR orbit with a mass of 575.00 kg.

Starlink 34870について

説明を読み込み中...

次回通過

Passes for default location (London). Set your location on the main map for personalized predictions.

高度履歴

Loading altitude history...

軌道要素

1 65370U 25190V 26194.60211584 .00006736 00000-0 23931-3 0 9990
2 65370 53.1595 303.2787 0001167 110.8197 249.2929 15.30206127 48560
Epoch: Jul 13, 2026 • Age: 17 hours

現在のステータス

高度 475.5 km
遠地点 / 近地点 N/A
速度 7.63 km/s
衛星直下点 8.44°N, 102.01°W
打ち上げ日 Aug 28, 2025
運用期間 0.8 years
タイプ internet

技術仕様

分類 Payload
質量 575.00 kg
乾燥質量 530.00 kg
総質量 575.00 kg
長さ 0.30 m
直径 4.10 m
スパン 29.00 m
形状 Box + pan
製造者 SPXS
バスタイプ Starlink V2MO
フェーズステータス In Orbit
所有者/国 SPXS/US

Most Searched